Facebook Twitter

Wetterstation Büchel (Flugplatz)

Messwerte
  Temperatur Wetter Niederschlag Luftdruck Wind
Do, 02:00 Uhr 3° - - 1002.4 hPa 14 km/h S
Do, 01:20 Uhr 3° - - 1001 hPa 13 km/h S
Do, 01:00 Uhr 3° - - 1002.7 hPa 14 km/h S
Do, 00:20 Uhr 3° - - 1001 hPa 14 km/h S
Do, 00:00 Uhr 3° - - 1003 hPa 18 km/h S
Mi, 23:20 Uhr 3° - - 1001 hPa 19 km/h S
Mi, 23:00 Uhr 3° - - 1003.3 hPa 18 km/h S
Mi, 22:20 Uhr 3° - - 1002 hPa 13 km/h S
Mi, 22:00 Uhr 3° - - 1003.8 hPa 14 km/h S
Mi, 21:20 Uhr 3° - - 1002 hPa 19 km/h S
Mi, 21:00 Uhr 3° - - 1004 hPa 14 km/h S
Mi, 20:20 Uhr 3° - - 1002 hPa 19 km/h S
Mi, 20:00 Uhr 3° - - 1004.4 hPa 18 km/h SW
Mi, 19:20 Uhr 2° - - 1002 hPa 16 km/h SW
Mi, 19:00 Uhr 2° - 0 mm 1004.5 hPa 18 km/h SW
Mi, 18:20 Uhr 2° - - 1002 hPa 14 km/h SW
Mi, 18:00 Uhr 2° Nebel - 1004.4 hPa 18 km/h SW
Mi, 17:20 Uhr 2° Nebel - 1002 hPa 16 km/h SW
Mi, 17:00 Uhr 2° Nebel - 1004.3 hPa 14 km/h SW
Mi, 16:54 Uhr 2° Nebel - 1002 hPa 13 km/h SW

Alle Zeitangaben MEZ